Skip Page Navigation
NASA JPL Caltech
NASA Logo - Jet Propulsion Laboratory + View the NASA Portal
+ Center for Near-Earth Object Studies
JPL Home Earth Solar System Stars & Galaxies Technology
JPL Solar System Dynamics
BODIES ORBITS EPHEMERIDES TOOLS PHYSICAL DATA DISCOVERY FAQ SITE MAP

Significant website upgrade scheduled for September 27. More details available here.

JPL Small-Body Database Browser
Search: [ help ]  
79180 (1993 FR62)
Classification: Main-belt Asteroid          SPK-ID: 2079180
Ephemeris | Orbit Diagram | Orbital Elements | Mission Design | Physical Parameters | Discovery Circumstances | Close-Approach Data ]

[ show orbit diagram ]
Orbital Elements at Epoch 2459396.5 (2021-Jul-01.0) TDB
Reference: JPL 19 (heliocentric ecliptic J2000)
 Element Value Uncertainty (1-sigma)   Units 
e .09863564466746651 5.4159e-08  
a 3.098102516183693 2.1015e-08 au
q 2.792519177254014 1.6908e-07 au
i 5.720746831276817 5.697e-06 deg
node 33.29685368732673 4.4773e-05 deg
peri 165.1068637254826 5.0262e-05 deg
M 64.03126649058062 2.1503e-05 deg
tp 2459042.232188288106
(2020-Jul-11.73218829)
0.00011871 TDB
period 1991.783377188756
5.45
2.0266e-05
5.549e-08
d
yr
n .1807425466659489 1.839e-09 deg/d
Q 3.403685855113372 2.3088e-08 au
  Orbit Determination Parameters
   # obs. used (total)      552  
   data-arc span      9925 days (27.17 yr)  
   first obs. used      1993-03-19  
   last obs. used      2020-05-21  
   planetary ephem.      DE441  
   SB-pert. ephem.      SB441-N16  
   condition code      0  
   norm. resid. RMS      .49512  
   source      ORB  
   producer      Otto Matic  
   solution date      2021-Apr-13 13:40:34  

Additional Information
 Earth MOID = 1.79133 au 
 Jupiter MOID = 1.54983 au 
 T_jup = 3.208 
[ show covariance matrix ]

Ephemeris | Orbit Diagram | Orbital Elements | Mission Design | Physical Parameters | Discovery Circumstances | Close-Approach Data ]

Physical Parameter Table
Parameter Symbol Value Units Sigma Reference Notes
absolute magnitude H 15.13   n/a E2021B10  

79180 (1993 FR62)          Discovered 1993-Mar-19 by UESAC at La Silla
Reference: 20040504/Numbers.arcLast Updated: 2004-07-16

[ show close-approach data ]
Alternate Designations
 1993 FR62 = 2003 AA49 
Ephemeris | Orbit Diagram | Orbital Elements | Mission Design | Physical Parameters | Discovery Circumstances | Close-Approach Data ]
ABOUT SSD CREDITS/AWARDS PRIVACY/COPYRIGHT GLOSSARY LINKS
FirstGov 2021-Sep-21 21:26 UT
(server date/time)  
NASA Home Page
Site Manager:   Ryan S. Park
Webmaster  Alan B. Chamberlin